Weather History for KT82 - February, 2013

Change the Weather History Date:

Tuesday, February 26, 2013

  Actual Average (KSAT) Record (KSAT)
Temperature  
Mean Temperature 48 °F 58 °F  
Max Temperature 65 °F 69 °F 91 °F (1954)
Min Temperature 32 °F 47 °F 22 °F (1974)
Degree Days  
Heating Degree Days 16 8  
Month to date heating degree days 267  
Since 1 July heating degree days 1285  
Cooling Degree Days 0 1  
Month to date cooling degree days 22  
Year to date cooling degree days 29  
Moisture  
Dew Point 23 °F    
Average Humidity 42    
Maximum Humidity 75    
Minimum Humidity 16    
Precipitation  
Precipitation 0.00 in 0.06 in 2.27 in (1903)
Month to date precipitation 1.64  
Year to date precipitation 3.40  
Snow  
Snow 0.00 in - - ()
Month to date snowfall  
Since 1 July snowfall  
Snow Depth -    
Sea Level Pressure  
Sea Level Pressure 29.88 in    
Wind  
Wind Speed 8 mph (West)    
Max Wind Speed 15 mph    
Max Gust Speed 22 mph    
Visibility 10 miles    
Events      
T = Trace of Precipitation, MM = Missing Value Source: NWS Daily Summary

Daily Weather History Graph

Daily Weather History Graph

Search for Another Location

Airport or City:

Trip Planner

Search our weather history database for the weather conditions in past years. The results will help you decide how hot, cold, wet, or windy it might be!

Date:

Astronomy

Feb. 26, 2013 Rise Set
Actual Time 7:04 AM CST 6:32 PM CST
Civil Twilight 6:40 AM CST 6:56 PM CST
Nautical Twilight 6:12 AM CST 7:24 PM CST
Astronomical Twilight 5:44 AM CST 7:52 PM CST
Moon 7:41 PM CST (2/26) 7:15 AM CST (2/26)
Length of Visible Light 12h 16m
Length of Day
11h 28m
Full, 99% of the Moon is Illuminated
Feb 26
Full
Mar 4
Last Quarter
Mar 11
New
Mar 19
First Quarter
Mar 27
Full

Hourly Weather History & Observations

Time (CST) Temp. Windchill Dew Point Humidity Pressure Visibility Wind Dir Wind Speed Gust Speed Precip Events Conditions
12:15 AM 41.0 °F 33.1 °F 27.0 °F 57% 29.89 in 10.0 mi WNW 15.0 mph 21.9 mph N/A   Clear
12:35 AM 40.5 °F 33.2 °F 27.0 °F 59% 29.88 in 10.0 mi WNW 12.7 mph 19.6 mph N/A   Clear
12:55 AM 40.1 °F 32.0 °F 26.8 °F 59% 29.87 in 10.0 mi NW 15.0 mph 20.7 mph N/A   Clear
1:15 AM 40.1 °F 34.1 °F 26.6 °F 59% 29.88 in 10.0 mi WNW 9.2 mph - N/A   Clear
1:35 AM 39.7 °F 34.3 °F 26.6 °F 59% 29.87 in 10.0 mi NW 8.1 mph - N/A   Clear
1:55 AM 39.0 °F 31.8 °F 26.4 °F 61% 29.87 in 10.0 mi WNW 11.5 mph - N/A   Clear
2:15 AM 38.5 °F 33.4 °F 26.6 °F 62% 29.87 in 10.0 mi WNW 6.9 mph - N/A   Clear
2:35 AM 37.4 °F 32.8 °F 26.4 °F 65% 29.88 in 10.0 mi West 5.8 mph - N/A   Clear
2:55 AM 36.5 °F 31.8 °F 26.2 °F 66% 29.88 in 10.0 mi West 5.8 mph - N/A   Clear
3:15 AM 35.2 °F 29.5 °F 25.9 °F 69% 29.88 in 10.0 mi West 6.9 mph - N/A   Clear
3:35 AM 34.5 °F 30.4 °F 25.9 °F 71% 29.89 in 10.0 mi West 4.6 mph - N/A   Clear
3:55 AM 34.0 °F 28.8 °F 25.7 °F 72% 29.88 in 10.0 mi WSW 5.8 mph - N/A   Clear
4:15 AM 32.4 °F 26.0 °F 25.3 °F 75% 29.88 in 10.0 mi SW 6.9 mph - N/A   Clear
4:35 AM 32.2 °F 27.7 °F 25.2 °F 75% 29.88 in 10.0 mi WSW 4.6 mph - N/A   Clear
4:55 AM 32.5 °F 28.1 °F 25.2 °F 74% 29.88 in 10.0 mi SW 4.6 mph - N/A   Clear
5:15 AM 32.7 °F 29.6 °F 25.2 °F 74% 29.88 in 10.0 mi West 3.5 mph - N/A   Clear
5:35 AM 33.8 °F 28.6 °F 25.3 °F 71% 29.89 in 10.0 mi West 5.8 mph - N/A   Clear
5:55 AM 34.0 °F 31.0 °F 25.0 °F 70% 29.89 in 10.0 mi West 3.5 mph - N/A   Clear
6:15 AM 33.3 °F 28.9 °F 24.8 °F 71% 29.90 in 10.0 mi West 4.6 mph - N/A   Clear
6:35 AM 33.1 °F 27.7 °F 24.6 °F 71% 29.90 in 10.0 mi WNW 5.8 mph - N/A   Clear
6:55 AM 32.4 °F 29.1 °F 24.8 °F 74% 29.91 in 10.0 mi WNW 3.5 mph - N/A   Clear
7:15 AM 33.4 °F 30.4 °F 24.8 °F 71% 29.91 in 10.0 mi NW 3.5 mph - N/A   Clear
7:35 AM 35.4 °F 31.5 °F 25.5 °F 67% 29.92 in 10.0 mi WNW 4.6 mph - N/A   Clear
7:55 AM 33.3 °F 27.9 °F 26.1 °F 75% 29.93 in 10.0 mi SW 5.8 mph - N/A   Clear
8:15 AM 37.6 °F 31.0 °F 26.6 °F 65% 29.94 in 10.0 mi WNW 9.2 mph - N/A   Clear
8:35 AM 40.6 °F 35.4 °F 25.5 °F 55% 29.95 in 10.0 mi NW 8.1 mph - N/A   Clear
8:55 AM 42.4 °F 37.0 °F 25.2 °F 50% 29.96 in 10.0 mi NW 9.2 mph - N/A   Clear
9:15 AM 43.7 °F 38.6 °F 25.0 °F 48% 29.96 in 10.0 mi NNW 9.2 mph - N/A   Clear
9:35 AM 45.5 °F 39.9 °F 24.8 °F 44% 29.95 in 10.0 mi NNW 11.5 mph - N/A   Clear
9:55 AM 46.8 °F - 24.3 °F 41% 29.94 in 10.0 mi NNW 10.4 mph - N/A   Clear
10:15 AM 49.1 °F - 23.7 °F 37% 29.94 in 10.0 mi NW 8.1 mph - N/A   Clear
10:35 AM 50.4 °F - 23.4 °F 35% 29.95 in 10.0 mi NNW 10.4 mph - N/A   Clear
10:55 AM 51.8 °F - 22.8 °F 32% 29.94 in 10.0 mi NW 9.2 mph 16.1 mph N/A   Clear
11:15 AM 53.4 °F - 22.5 °F 30% 29.94 in 10.0 mi NW 11.5 mph 16.1 mph N/A   Clear
11:35 AM 55.2 °F - 22.5 °F 28% 29.93 in 10.0 mi North 10.4 mph 16.1 mph N/A   Clear
11:55 AM 56.3 °F - 23.4 °F 28% 29.92 in 10.0 mi NNW 9.2 mph - N/A   Clear
12:15 PM 57.4 °F - 22.5 °F 26% 29.91 in 10.0 mi West 8.1 mph - N/A   Clear
12:35 PM 57.9 °F - 21.6 °F 25% 29.91 in 10.0 mi NW 11.5 mph 17.3 mph N/A   Clear
12:55 PM 58.5 °F - 22.3 °F 25% 29.90 in 10.0 mi West 9.2 mph - N/A   Clear
1:15 PM 61.0 °F - 22.5 °F 23% 29.89 in 10.0 mi West 10.4 mph 18.4 mph N/A   Clear
1:35 PM 60.8 °F - 21.9 °F 22% 29.88 in 10.0 mi West 10.4 mph - N/A   Clear
1:55 PM 62.8 °F - 22.8 °F 22% 29.87 in 10.0 mi SW 9.2 mph - N/A   Clear
2:15 PM 63.7 °F - 21.7 °F 20% 29.86 in 10.0 mi WNW 6.9 mph - N/A   Clear
2:35 PM 63.7 °F - 19.6 °F 18% 29.85 in 10.0 mi West 6.9 mph - N/A   Clear
2:55 PM 64.0 °F - 19.4 °F 18% 29.84 in 10.0 mi WNW 5.8 mph 17.3 mph N/A   Clear
3:15 PM 64.0 °F - 20.1 °F 19% 29.84 in 10.0 mi West 6.9 mph - N/A   Clear
3:35 PM 64.2 °F - 19.2 °F 18% 29.83 in 10.0 mi WNW 3.5 mph - N/A   Clear
3:55 PM 64.9 °F - 19.8 °F 18% 29.83 in 10.0 mi West 4.6 mph - N/A   Clear
4:15 PM 65.1 °F - 19.0 °F 17% 29.83 in 10.0 mi West 9.2 mph - N/A   Clear
4:35 PM 65.7 °F - 19.0 °F 17% 29.83 in 10.0 mi Calm Calm - N/A   Clear
4:55 PM 65.7 °F - 18.9 °F 17% 29.83 in 10.0 mi WSW 3.5 mph - N/A   Clear
5:15 PM 65.3 °F - 18.0 °F 16% 29.83 in 10.0 mi West 3.5 mph - N/A   Clear
5:35 PM 64.8 °F - 18.9 °F 17% 29.83 in 10.0 mi Calm Calm - N/A   Clear
5:55 PM 63.3 °F - 21.0 °F 20% 29.84 in 10.0 mi SSW 10.4 mph 16.1 mph N/A   Clear
6:15 PM 60.8 °F - 21.7 °F 22% 29.84 in 10.0 mi South 10.4 mph - N/A   Clear
6:35 PM 59.0 °F - 22.1 °F 24% 29.85 in 10.0 mi South 9.2 mph - N/A   Clear
6:55 PM 57.7 °F - 21.6 °F 25% 29.85 in 10.0 mi SSW 9.2 mph - N/A   Clear
7:15 PM 56.5 °F - 21.7 °F 26% 29.85 in 10.0 mi SSW 8.1 mph - N/A   Clear
7:35 PM 56.1 °F - 21.4 °F 26% 29.85 in 10.0 mi SSW 9.2 mph - N/A   Clear
7:55 PM 55.4 °F - 21.2 °F 26% 29.85 in 10.0 mi SW 6.9 mph - N/A   Clear
8:15 PM 54.5 °F - 21.0 °F 27% 29.86 in 10.0 mi SW 5.8 mph - N/A   Clear
8:35 PM 54.0 °F - 20.8 °F 27% 29.86 in 10.0 mi SW 5.8 mph - N/A   Clear
8:55 PM 53.8 °F - 20.5 °F 27% 29.87 in 10.0 mi SW 6.9 mph - N/A   Clear
9:15 PM 53.4 °F - 20.3 °F 27% 29.87 in 10.0 mi SW 6.9 mph - N/A   Clear
9:35 PM 52.0 °F - 20.3 °F 29% 29.87 in 10.0 mi SW 5.8 mph - N/A   Clear
9:55 PM 50.7 °F - 20.3 °F 30% 29.87 in 10.0 mi SW 4.6 mph - N/A   Clear
10:15 PM 51.3 °F - 20.1 °F 29% 29.87 in 10.0 mi SW 4.6 mph - N/A   Clear
10:35 PM 48.6 °F - 20.3 °F 33% 29.87 in 10.0 mi SW 3.5 mph - N/A   Clear
10:55 PM 48.9 °F - 20.3 °F 32% 29.87 in 10.0 mi WSW 4.6 mph - N/A   Clear
11:15 PM 49.5 °F - 19.8 °F 31% 29.87 in 10.0 mi West 3.5 mph - N/A   Clear
11:35 PM 43.3 °F - 21.2 °F 41% 29.86 in 10.0 mi Calm Calm - N/A   Clear
11:55 PM 44.4 °F - 21.0 °F 39% 29.86 in 10.0 mi Calm Calm - N/A   Clear